TimeEDT,TemperatureF,Dew PointF,Humidity,Sea Level PressureIn,VisibilityMPH,Wind Direction,Wind SpeedMPH,Gust SpeedMPH,PrecipitationIn,Events,Conditions,WindDirDegrees,DateUTC
12:53 AM,59.0,57.0,93,29.56,10.0,South,3.5,-,N/A,,Overcast,170,2013-04-19 04:53:00
1:43 AM,57.2,57.2,100,29.54,8.0,ESE,5.8,-,0.00,Rain,Light Rain,120,2013-04-19 05:43:00
1:53 AM,59.0,57.0,93,29.52,8.0,ESE,5.8,-,0.00,,Overcast,120,2013-04-19 05:53:00
2:39 AM,57.2,55.4,94,29.51,5.0,ESE,6.9,-,0.02,Rain,Light Rain,120,2013-04-19 06:39:00
2:53 AM,57.9,55.0,90,29.49,5.0,SE,8.1,-,0.04,Rain,Light Rain,140,2013-04-19 06:53:00
3:00 AM,57.2,55.4,94,29.48,7.0,SE,5.8,-,0.02,Rain,Light Rain,130,2013-04-19 07:00:00
3:53 AM,59.0,55.0,87,29.42,10.0,SE,6.9,-,0.04,Rain,Light Rain,140,2013-04-19 07:53:00
4:53 AM,59.0,54.0,83,29.38,7.0,SSE,9.2,-,0.02,Rain,Light Rain,150,2013-04-19 08:53:00
5:53 AM,60.1,55.0,83,29.34,8.0,SSE,11.5,-,0.04,Rain,Light Rain,150,2013-04-19 09:53:00
5:59 AM,60.8,55.4,82,29.35,7.0,SSE,11.5,-,0.00,Rain,Light Rain,150,2013-04-19 09:59:00
6:23 AM,59.0,55.4,88,29.35,4.0,South,11.5,-,0.03,Rain,Rain,180,2013-04-19 10:23:00
6:53 AM,53.1,48.0,83,29.37,7.0,WSW,24.2,41.4,0.03,Rain,Light Rain,250,2013-04-19 10:53:00
6:56 AM,53.6,48.2,82,29.37,8.0,WSW,20.7,36.8,0.00,Rain,Light Rain,240,2013-04-19 10:56:00
7:28 AM,51.8,46.4,82,29.39,3.0,SW,16.1,-,0.00,Rain,Rain,230,2013-04-19 11:28:00
7:45 AM,50.0,46.4,87,29.41,3.0,SW,19.6,26.5,0.01,Rain,Light Rain,220,2013-04-19 11:45:00
7:53 AM,48.9,46.0,90,29.42,3.0,SW,24.2,31.1,0.01,Rain,Light Rain,230,2013-04-19 11:53:00
7:55 AM,48.2,46.4,93,29.42,4.0,SW,21.9,31.1,0.00,Rain,Light Rain,230,2013-04-19 11:55:00
8:53 AM,45.0,44.1,97,29.45,10.0,SW,16.1,25.3,0.00,Rain,Light Rain,220,2013-04-19 12:53:00
9:44 AM,44.6,42.8,93,29.47,10.0,SW,20.7,27.6,0.00,Rain,Light Rain,220,2013-04-19 13:44:00
9:53 AM,43.0,41.0,93,29.47,10.0,SW,20.7,33.4,0.00,Rain,Light Rain,220,2013-04-19 13:53:00
10:07 AM,42.8,37.4,81,29.48,10.0,SW,25.3,33.4,N/A,,Overcast,220,2013-04-19 14:07:00
10:53 AM,42.1,33.1,70,29.51,10.0,SW,23.0,34.5,N/A,,Overcast,230,2013-04-19 14:53:00
11:41 AM,42.8,30.2,61,29.54,10.0,SW,26.5,38.0,N/A,,Overcast,220,2013-04-19 15:41:00
11:53 AM,42.1,30.0,62,29.55,10.0,SW,28.8,38.0,N/A,,Overcast,220,2013-04-19 15:53:00
12:53 PM,42.1,30.0,62,29.56,10.0,SW,25.3,38.0,N/A,,Overcast,230,2013-04-19 16:53:00
1:53 PM,42.1,30.0,62,29.57,10.0,SW,21.9,33.4,N/A,,Overcast,230,2013-04-19 17:53:00
2:53 PM,43.0,30.0,60,29.60,10.0,SSW,34.5,46.0,N/A,,Overcast,210,2013-04-19 18:53:00
3:53 PM,43.0,28.9,58,29.62,10.0,SW,27.6,36.8,N/A,,Overcast,220,2013-04-19 19:53:00
4:53 PM,42.1,30.0,62,29.65,10.0,SW,27.6,43.7,N/A,,Overcast,220,2013-04-19 20:53:00
5:53 PM,42.1,28.9,60,29.68,10.0,SW,29.9,42.6,0.00,,Overcast,230,2013-04-19 21:53:00
6:53 PM,41.0,30.0,65,29.71,10.0,SSW,23.0,29.9,0.00,,Overcast,210,2013-04-19 22:53:00
7:53 PM,39.9,30.9,70,29.73,10.0,SSW,21.9,26.5,0.00,Rain,Light Rain,210,2013-04-19 23:53:00
8:53 PM,39.9,28.9,65,29.76,10.0,SW,19.6,28.8,0.00,,Overcast,230,2013-04-20 00:53:00
9:53 PM,39.9,28.0,63,29.78,10.0,SSW,20.7,32.2,N/A,,Overcast,210,2013-04-20 01:53:00
10:53 PM,39.0,28.9,67,29.78,10.0,SW,15.0,29.9,N/A,,Mostly Cloudy,220,2013-04-20 02:53:00
11:53 PM,37.9,28.0,68,29.78,10.0,SW,19.6,-,N/A,,Mostly Cloudy,220,2013-04-20 03:53:00